Regional Weather Roundup
Issued by NWS Sterling, VA

Home | Current Version | Previous Version | Graphics & Text | Print | Product List | Glossary On
Versions: 1 2 3 4 5 6 7 8 9 10 11 12 13 14 15 16 17 18 19 20 21 22 23 24 25 26 27
000
ASUS41 KLWX 290810
RWRLWX

REGIONAL WEATHER ROUNDUP
NATIONAL WEATHER SERVICE BALTIMORE MD/WASHINGTON DC
400 AM EDT SUN MAY 29 2016

Note: "FAIR" indicates few or no clouds below 12,000 feet
with no significant weather and/or obstructions to visibility.
 TC=TEMPERATURE CELSIUS

 * =Non NWS site. Station does not report precipitation (e.g. rain,
    snow, etc.), thunder, or fog.

DCZ001-MDZ009-015-VAZ040>042-051-053>054-290900-
WASHINGTON METRO

CITY           SKY/WX    TMP DP  RH WIND       PRES   REMARKS
WASHINGTON NAT MOCLDY    68  62  81 S5        30.13S
DULLES         FAIR      66  61  84 S5        30.13S
ANDREWS AFB    PTCLDY    64  60  88 S2        30.13S
FT BELVOIR     FAIR      62  60  95 CALM      30.13S
QUANTICO       FAIR      66  63  90 NW5       30.13S
COLLEGE PARK*  FAIR      63  59  88 CALM      30.13S
LEESBURG*      FAIR      70  64  83 S5        30.14S
MANASSAS*      FAIR      61  61 100 CALM      30.13S

$$

MDZ006>007-011-014-290900-
BALTIMORE METRO

CITY           SKY/WX    TMP DP  RH WIND       PRES   REMARKS
BWI AIRPORT    MOCLDY    64  59  83 CALM      30.13S
MD SCIENCE CTR   N/A     70  60  70 MISG      30.14S
MARTIN STATE   PTCLDY    68  66  94 SE5       30.15S
ANNAPOLIS      PTCLDY    68  65  90 SE5       30.12F
FORT MEADE*    CLEAR     59  55  88 CALM      30.16S

$$

MDZ012-015-019>023-290900-
MARYLAND EASTERN SHORE

CITY           SKY/WX    TMP DP  RH WIND       PRES   REMARKS
OCEAN CITY     CLEAR     64  62  93 CALM      30.14F
SALISBURY      CLOUDY    58  57  97 CALM      30.14F
BAY BRIDGE AP* PTCLDY    70  64  83 S6        30.13S
CAMBRIDGE*       N/A     57  55  94 CALM      30.13F
EASTON*        CLEAR     64  64 100 CALM      30.17F

$$

MDZ017>025-290900-
SOUTHERN MARYLAND

CITY           SKY/WX    TMP DP  RH WIND       PRES   REMARKS
PATUXENT RIVER CLOUDY    61  58  90 CALM      30.13F
ST INIGOES     CLOUDY    62  61  96 E3        30.12F
LEONARDTOWN*   CLOUDY    61  59  94 CALM      30.15S

$$

MDZ003>005-290900-
NORTH CENTRAL MARYLAND

CITY           SKY/WX    TMP DP  RH WIND       PRES   REMARKS
FREDERICK*     PTCLDY    66  63  88 CALM      30.15S
HAGERSTOWN APT PTCLDY    71  61  70 S3        30.12S
WESTMINSTER*   PTCLDY    66  64  94 SE3       30.14S

$$

MDZ501>502-290900-
WESTERN MARYLAND

CITY           SKY/WX    TMP DP  RH WIND       PRES   REMARKS
OAKLAND*       NOT AVBL
CUMBERLAND*    PTCLDY    64  64 100 CALM      30.16R

$$

VAZ025>031-290900-
SHENANDOAH VALLEY

CITY           SKY/WX    TMP DP  RH WIND       PRES   REMARKS
WINCHESTER*    FAIR      66  61  82 SW6       30.12S
FRONT ROYAL*   FAIR      63  61  94 S3        30.12S
LURAY*         FAIR      59  59 100 CALM      30.14F FOG
NEW MARKET*    FAIR      60  60 100 CALM      30.13F
STAUNTON*      FAIR      59  58  96 CALM      30.17F
WAYNESBORO*    FAIR      60  58  93 CALM      30.16S

$$

WVZ021-048>050-054>055-290900-
EASTERN WEST VIRGINIA PANHANDLE

CITY           SKY/WX    TMP DP  RH WIND       PRES   REMARKS
MARTINSBURG    FAIR      61  60  97 CALM      30.11S FOG
PETERSBURG*    FAIR      63  62  99 CALM      30.14S FOG

$$

VAZ036>039-050-290900-
CENTRAL FOOTHILLS

CITY           SKY/WX    TMP DP  RH WIND       PRES   REMARKS
CHARLOTTESVILL FAIR      64  61  90 CALM      30.13F
CULPEPER*      FAIR      63  62  99 CALM      30.14S
ORANGE*        FAIR      61  61 100 CALM      30.15S
GORDONSVILLE*  FAIR      59  59 100 CALM      30.13S
WARRENTON*     FAIR      59  55  85 CALM      30.13S

$$

VAZ055>057-290900-
NORTH AND CENTRAL PIEDMONT

CITY           SKY/WX    TMP DP  RH WIND       PRES   REMARKS
FREDERICKSBRG* FAIR      63  63  99 CALM      30.12S
STAFFORD*      FAIR      57  56  94 CALM      30.17S

$$

NCZ024-NYZ072-PAZ021-071-VAZ022-071-290900-
OTHER REGIONAL OBSERVATIONS

CITY           SKY/WX    TMP DP  RH WIND       PRES   REMARKS
NEW YORK CITY  CLEAR     74  55  51 W3        30.15F
PHILADELPHIA   PTCLDY    68  57  68 S5        30.14S
PITTSBURGH     CLOUDY    69  64  84 CALM      30.11S
ROANOKE        FAIR      67  61  81 CALM      30.16F
RICHMOND       FAIR      65  62  90 CALM      30.12F
RALEIGH        CLOUDY    71  67  87 E5        30.09F

$$

ANZ530>537-290900-
MARINE OBSERVATIONS

STATION/POSITION TIME  TEMP    WIND        PRES
                       AIR SEA DIR/SP/G
                 (UTC) (F)     (DEG/KT/KT) (MB)
THOMAS PT LIGHT  0800   68 68  170/  7/  8 1021.4F
BALT KEY BRIDGE  0700   70     160/  3/  3 1020.2F
COVE POINT       0700   67     190/  3/  4 1021.1F
LEWISETTA        0700   70 69  220/  5/  6 1019.9F
SOLOMONS ISLAND  0700   67 68   70/  2/  2   N/A
PINEY POINT      0700          190/  4/  4   N/A

$$





USA.gov is the U.S. government's official web portal to all federal, state and local government web resources and services.